星链-1224 (STARLINK-1224 )

导读

STARLINK-1224是美国太空探索技术公司SpaceX星链(Starlink)卫星互联网星座中的一颗卫星,于2020年2月17日在美国发射升空,属于星链星座早期部署批次,主要用于为全球提供低延迟、高速率的宽带互联网接入服务,依托近地轨道部署,助力实现全球网络覆盖。

Basic Information
目录编号:
45186
目录名称:
STARLINK-1224
国际标识:
2020-012J
轨道中心:
EARTH
卫星名称:
星链-1224
卫星全名:
星链-1224 (STARLINK-1224 )
卫星状态:
已陨落 最后检测时间 2025-09-23
发射日期:
2020-02-17 UTC
国别 :
美国 (US)
星等 :
--
Orbit Information
数据来源 国际轨道数据
星历时间: 2025-09-24T02:43:45+0800
轨道信息已过期262天
半长轴: 6531.188km
偏心率: 0.0003235
轨道倾角: 53.027°
近地点辐角 297.984°
升交点赤经 15.451°
平近点角 62.088°
近地点: 150.94km
远地点: 155.166km
周期: 87.548分钟
每日圈数: 16.448055
Detailed Information
固有亮度:
5
最大亮度:
2.5
卫星平台:
Starlink V1.0
覆盖范围:
全球
运营商:
太空探索技术公司
运营商所在国:
美国
制造商(研发单位):
太空探索技术公司
制造商所在国:
美国
使用方式:
暂无
Satellite Introduction
星链(Starlink)计划是由太空探索技术公司(SpaceX)提出的一个巨型低轨卫星互联网星座项目,计划在2019年至2024年间在太空搭建由约1.2万颗卫星组成的“星链”网络,其中1584颗将部署在地球上空550千米处的近地轨道,并从2020年开始工作。该卫星仍在工作。